Date String (YYYY-MM-DD hh:mm:ss) UTC,Instrument flags,Ambient pressure (hPa),Sample flow (lpm),Bypass flow (lpm),Sample temperature (°C),Ambient temperature (°C),ASC tube jacket temperature (°C),LED temperature (°C),Box temperature (°C),Sample RH (%),Span deviation,Mass concentration (μg/m³),Mass concentration (μg/m³),Mass concentration (μg/m³)
DateTimeUTC,F1_M11,P_M11,Q1_M11,Q2_M11,T1_M11,T2_M11,T3_M11,T4_M11,T5_M11,U1_M11,ZSPAN_M11,X0_M11,X2_M11,X1_M11
2021-09-03 15:00:00,,0829.5,5.00,0.00,29.9,28.9,00.0,38.9,31.7,29.4,0002.1,0021.22,0016.67,0016.07
2021-09-03 15:01:00,,0829.5,5.01,0.00,29.9,28.9,00.0,38.9,31.7,29.3,0002.0,0020.66,0016.66,0016.08
2021-09-03 15:02:00,,0829.5,4.99,0.00,29.9,29.0,00.0,38.9,31.7,29.1,0001.9,0020.53,0016.71,0016.11
2021-09-03 15:03:00,,0829.5,5.01,0.00,30.0,29.1,00.0,39.0,31.8,28.8,0001.9,0019.97,0016.71,0016.11
2021-09-03 15:04:00,,0829.5,5.00,0.00,30.0,29.1,00.0,39.0,31.8,29.0,0001.9,0019.95,0016.72,0016.13
2021-09-03 15:05:00,,0829.5,4.99,0.00,30.0,29.2,00.0,39.0,31.9,28.9,0002.0,0019.86,0016.74,0016.17
2021-09-03 15:06:00,,0829.5,5.00,0.00,30.1,29.2,00.0,39.0,31.9,28.8,0001.9,0019.73,0016.74,0016.20
2021-09-03 15:07:00,,0829.5,5.01,0.00,30.1,29.3,00.0,39.0,31.9,28.7,0002.0,0019.85,0016.77,0016.23
2021-09-03 15:08:00,,0829.4,5.00,0.00,30.1,29.3,00.0,39.1,32.0,29.1,0002.1,0019.84,0016.77,0016.23
2021-09-03 15:09:00,,0829.5,5.00,0.00,30.2,29.4,00.0,39.1,32.0,28.9,0001.9,0019.72,0016.78,0016.24
2021-09-03 15:10:00,,0829.5,5.01,0.00,30.2,29.4,00.0,39.1,32.0,28.4,0001.9,0019.79,0016.82,0016.26
2021-09-03 15:11:00,,0829.5,4.98,0.00,30.2,28.6,00.0,39.1,31.8,28.5,0001.7,0020.12,0016.91,0016.27
2021-09-03 15:12:00,,0829.5,5.01,0.00,30.1,26.8,00.0,39.1,31.4,28.4,0001.7,0019.95,0016.94,0016.29
2021-09-03 15:13:00,,0829.5,5.00,0.00,29.9,26.2,00.0,39.1,31.1,28.8,0001.6,0019.89,0016.91,0016.29
2021-09-03 15:14:00,,0829.5,5.01,0.00,29.8,26.5,00.0,39.1,31.2,28.8,0001.5,0019.91,0016.93,0016.30
2021-09-03 15:15:00,,0829.5,5.00,0.00,29.8,26.9,00.0,39.0,31.2,29.0,0001.4,0020.00,0017.00,0016.33
2021-09-03 15:16:00,,0829.5,5.01,0.00,29.7,27.4,00.0,39.0,31.3,28.9,0001.3,0020.03,0017.01,0016.33
2021-09-03 15:17:00,,0829.5,4.99,0.00,29.7,27.7,00.0,38.9,31.4,29.0,0001.4,0020.18,0017.02,0016.32
2021-09-03 15:18:00,,0829.5,5.00,0.00,29.8,28.0,00.0,38.9,31.4,29.1,0001.5,0020.45,0017.03,0016.31
2021-09-03 15:19:00,,0829.4,5.01,0.00,29.8,28.3,00.0,38.9,31.5,29.2,0001.5,0020.55,0017.02,0016.30
2021-09-03 15:20:00,,0829.4,4.99,0.00,29.8,28.5,00.0,38.9,31.5,29.0,0001.4,0020.62,0017.02,0016.30
2021-09-03 15:21:00,,0829.5,5.00,0.00,29.8,28.6,00.0,38.9,31.6,29.1,0001.3,0020.48,0016.96,0016.28
2021-09-03 15:22:00,,0829.5,5.01,0.00,29.9,28.8,00.0,38.9,31.7,29.0,0001.5,0020.14,0016.91,0016.27
2021-09-03 15:23:00,,0829.5,4.98,0.00,29.9,28.9,00.0,38.9,31.8,28.8,0001.6,0020.14,0016.91,0016.28
2021-09-03 15:24:00,,0829.5,5.00,0.00,29.9,29.0,00.0,39.0,31.8,28.5,0001.9,0020.38,0017.00,0016.30
2021-09-03 15:25:00,,0829.5,5.00,0.00,30.0,29.0,00.0,39.0,31.8,28.5,0001.9,0020.61,0017.04,0016.31
2021-09-03 15:26:00,,0829.5,4.99,0.00,30.0,29.1,00.0,39.0,31.9,28.7,0001.9,0020.65,0017.02,0016.31
2021-09-03 15:27:00,,0829.5,4.99,0.00,30.1,29.2,00.0,39.0,31.9,28.7,0002.0,0020.72,0017.03,0016.33
2021-09-03 15:28:00,,0829.5,5.00,0.00,30.1,29.2,00.0,39.0,31.9,28.9,0002.2,0020.94,0017.10,0016.37
2021-09-03 15:29:00,,0829.6,5.00,0.00,30.1,29.3,00.0,39.1,32.0,28.6,0002.3,0021.42,0017.16,0016.43
2021-09-03 15:30:00,,0829.5,5.00,0.00,30.2,29.3,00.0,39.1,32.0,28.7,0002.3,0021.81,0017.21,0016.48
2021-09-03 15:31:00,,0829.5,5.01,0.00,30.1,28.1,00.0,39.1,31.7,28.7,0002.5,0021.91,0017.29,0016.53
2021-09-03 15:32:00,,0829.5,4.99,0.00,30.0,26.5,00.0,39.1,31.2,29.1,0002.5,0022.22,0017.41,0016.59
2021-09-03 15:33:00,,0829.6,5.00,0.00,29.9,26.2,00.0,39.0,31.2,29.4,0002.5,0022.44,0017.49,0016.64
2021-09-03 15:34:00,,0829.6,5.01,0.00,29.8,26.6,00.0,39.0,31.2,29.7,0002.5,0022.44,0017.49,0016.65
2021-09-03 15:35:00,,0829.6,5.00,0.00,29.7,27.1,00.0,39.0,31.2,29.8,0002.3,0022.32,0017.47,0016.66
2021-09-03 15:36:00,,0829.8,5.01,0.00,29.7,27.5,00.0,38.9,31.3,29.7,0002.3,0022.20,0017.47,0016.67
2021-09-03 15:37:00,,0829.7,5.00,0.00,29.7,27.8,00.0,38.9,31.4,30.0,0002.3,0022.79,0017.52,0016.69
2021-09-03 15:38:00,,0829.7,5.00,0.00,29.7,28.1,00.0,38.9,31.4,29.9,0002.3,0022.81,0017.54,0016.71
2021-09-03 15:39:00,,0829.9,5.01,0.00,29.8,28.3,00.0,38.9,31.5,29.7,0002.0,0022.58,0017.53,0016.73
2021-09-03 15:40:00,,0829.6,5.00,0.00,29.8,28.5,00.0,38.9,31.6,30.3,0001.8,0021.87,0017.53,0016.72
2021-09-03 15:41:00,,0829.7,5.00,0.00,29.8,28.6,00.0,38.9,31.6,31.0,0001.6,0021.49,0017.54,0016.72
2021-09-03 15:42:00,,0829.7,5.00,0.00,29.9,28.8,00.0,38.9,31.7,30.6,0001.4,0021.58,0017.56,0016.73
2021-09-03 15:43:00,,0829.7,5.00,0.00,29.9,28.9,00.0,38.9,31.7,31.0,0001.4,0022.24,0017.52,0016.71
2021-09-03 15:44:00,,0829.8,5.01,0.00,29.9,28.9,00.0,38.9,31.7,30.8,0001.4,0022.15,0017.49,0016.70
2021-09-03 15:45:00,,0829.7,4.99,0.00,30.0,29.0,00.0,39.0,31.7,31.1,0001.4,0022.58,0017.55,0016.72
2021-09-03 15:46:00,,0829.8,5.01,0.00,30.0,29.1,00.0,39.0,31.8,31.0,0001.6,0023.73,0017.58,0016.72
2021-09-03 15:47:00,,0829.8,5.01,0.00,30.0,29.1,00.0,39.0,31.9,30.3,0001.8,0024.01,0017.63,0016.74
2021-09-03 15:48:00,,0829.8,5.00,0.00,30.1,29.2,00.0,39.0,31.9,29.7,0001.6,0023.44,0017.59,0016.75
2021-09-03 15:49:00,,0829.8,4.99,0.00,30.1,29.2,00.0,39.0,31.9,29.9,0001.7,0023.54,0017.64,0016.79
2021-09-03 15:50:00,,0829.8,5.01,0.00,30.1,28.3,00.0,39.0,31.7,30.1,0001.6,0023.57,0017.67,0016.80
2021-09-03 15:51:00,,0829.7,4.99,0.00,29.9,26.5,00.0,39.0,31.3,30.1,0001.6,0023.44,0017.65,0016.81
2021-09-03 15:52:00,,0829.7,5.00,0.00,29.8,26.0,00.0,39.0,31.1,30.0,0001.5,0023.57,0017.67,0016.83
2021-09-03 15:53:00,,0829.7,5.01,0.00,29.7,26.4,00.0,39.0,31.1,30.6,0001.6,0023.84,0017.71,0016.85
2021-09-03 15:54:00,,0829.7,5.00,0.00,29.7,26.8,00.0,38.9,31.2,30.6,0001.6,0023.15,0017.75,0016.89
2021-09-03 15:55:00,,0829.7,5.00,0.00,29.6,27.3,00.0,38.9,31.2,30.5,0001.5,0023.13,0017.74,0016.88
2021-09-03 15:56:00,,0829.7,5.01,0.00,29.7,27.6,00.0,38.8,31.3,30.7,0001.4,0022.89,0017.74,0016.87
2021-09-03 15:57:00,,0829.7,5.00,0.00,29.7,27.9,00.0,38.8,31.4,30.6,0001.3,0021.93,0017.70,0016.86
2021-09-03 15:58:00,,0829.7,5.01,0.00,29.7,28.2,00.0,38.8,31.4,31.0,0001.3,0021.73,0017.66,0016.83
2021-09-03 15:59:00,,0829.8,4.99,0.00,29.7,28.4,00.0,38.8,31.5,30.3,0001.3,0021.76,0017.65,0016.80
